Location: Rooftop Observatory
(39.0308°N, 87.1711°W)
Time: 07:04:40
(UTC-05:00)

Terra - Visible Passes

Search period start: 29 April 2016 00:00
Search period end: 09 May 2016 00:00
Orbit: 702 x 703 km, 98.2° (Epoch: 29 April)

Date Brightness Start Highest point End Pass type
(mag) Time Alt. Az. Time Alt. Az. Time Alt. Az.
29 Apr 4.0 21:20:32 11° ENE 21:21:01 11° ENE 21:22:23 10° NE visible
29 Apr 2.7 22:59:25 47° NNW 22:59:25 47° NNW 23:02:50 10° NNW visible
30 Apr 3.1 22:03:44 28° ENE 22:03:44 28° ENE 22:07:23 10° N visible
30 Apr 3.8 23:42:37 23° WNW 23:42:37 23° WNW 23:45:04 10° NW visible
01 May 2.4 22:46:56 54° N 22:46:56 54° N 22:50:39 10° N visible
02 May 3.3 21:51:16 22° ENE 21:51:16 22° ENE 21:54:52 10° NNE visible
02 May 3.4 23:30:08 30° WNW 23:30:08 30° WNW 23:33:09 10° NNW visible
03 May 2.3 22:34:28 51° NE 22:34:28 51° NE 22:38:25 10° N visible
04 May 4.5 00:13:21 12° WNW 00:13:21 12° WNW 00:14:11 10° WNW visible
04 May 3.6 21:38:48 17° ENE 21:39:12 17° ENE 21:42:13 10° NNE visible
04 May 2.9 23:17:40 40° WNW 23:17:40 40° WNW 23:21:09 10° NNW visible
05 May 2.5 22:22:00 42° ENE 22:22:00 42° ENE 22:26:07 10° N visible
06 May 4.1 00:00:53 16° WNW 00:00:53 16° WNW 00:02:48 10° NW visible
06 May 3.9 21:26:19 12° ENE 21:27:10 13° ENE 21:29:17 10° NE visible
06 May 2.4 23:05:12 54° NW 23:05:12 54° NW 23:09:04 10° NNW visible
07 May 2.8 22:09:32 33° ENE 22:09:32 33° ENE 22:13:45 10° N visible
07 May 3.8 23:48:25 22° WNW 23:48:25 22° WNW 23:51:07 10° NW visible
08 May 2.0 22:52:44 68° NNW 22:52:44 68° NNW 22:56:55 10° NNW visible
